Date String (YYYY-MM-DD hh:mm:ss) UTC,Instrument flags,Ambient pressure (hPa),Sample flow (lpm),Bypass flow (lpm),Sample temperature (°C),Ambient temperature (°C),ASC tube jacket temperature (°C),LED temperature (°C),Box temperature (°C),Sample RH (%),Span deviation,Mass concentration (μg/m³),Mass concentration (μg/m³),Mass concentration (μg/m³)
DateTimeUTC,F1_M11,P_M11,Q1_M11,Q2_M11,T1_M11,T2_M11,T3_M11,T4_M11,T5_M11,U1_M11,ZSPAN_M11,X2_M11,X0_M11,X1_M11
2022-08-06 13:00:00,,0830.1,5.00,0.00,29.4,28.1,00.0,38.3,31.4,34.7,0000.0,0004.63,0009.15,0003.87
2022-08-06 13:01:00,,0830.1,5.00,0.00,29.5,28.2,00.0,38.3,31.4,34.7,0000.0,0004.66,0009.23,0003.88
2022-08-06 13:02:00,,0830.1,5.00,0.00,29.5,28.3,00.0,38.3,31.4,34.6,0000.0,0004.69,0009.41,0003.89
2022-08-06 13:03:00,,0830.1,4.99,0.00,29.5,28.4,00.0,38.3,31.5,34.6,0000.0,0004.71,0009.76,0003.89
2022-08-06 13:04:00,,0830.1,5.00,0.00,29.5,28.5,00.0,38.3,31.5,34.5,0000.0,0004.73,0010.00,0003.90
2022-08-06 13:05:00,,0830.1,5.01,0.00,29.6,28.5,00.0,38.3,31.5,34.4,0000.0,0004.71,0010.70,0003.90
2022-08-06 13:06:00,,0830.1,5.00,0.00,29.6,28.6,00.0,38.3,31.6,34.4,0000.0,0004.68,0010.50,0003.90
2022-08-06 13:07:00,,0830.1,5.01,0.00,29.6,28.6,00.0,38.4,31.6,34.3,0000.0,0004.63,0010.79,0003.91
2022-08-06 13:08:00,,0830.1,5.00,0.00,29.6,28.7,00.0,38.4,31.6,34.3,0000.0,0004.65,0010.88,0003.92
2022-08-06 13:09:00,,0830.1,5.00,0.00,29.7,28.7,00.0,38.4,31.7,34.2,0000.0,0004.67,0011.20,0003.93
2022-08-06 13:10:00,,0830.1,5.00,0.00,29.7,28.8,00.0,38.4,31.7,34.2,0000.0,0004.69,0012.06,0003.94
2022-08-06 13:11:00,,0830.1,5.01,0.00,29.7,28.8,00.0,38.4,31.7,34.1,0000.0,0004.75,0012.19,0003.96
2022-08-06 13:12:00,,0830.1,4.99,0.00,29.8,28.9,00.0,38.5,31.8,34.1,0000.0,0004.77,0012.37,0003.97
2022-08-06 13:13:00,,0830.1,5.01,0.00,29.8,28.6,00.0,38.5,31.7,34.1,0000.0,0004.77,0012.53,0003.97
2022-08-06 13:14:00,,0830.1,5.00,0.00,29.8,28.0,00.0,38.4,31.6,34.1,0000.0,0004.78,0012.95,0003.98
2022-08-06 13:15:00,,0830.1,4.99,0.00,29.7,27.7,00.0,38.4,31.5,34.2,0000.0,0004.74,0013.04,0003.98
2022-08-06 13:16:00,,0830.1,5.00,0.00,29.6,27.7,00.0,38.4,31.4,34.3,0000.0,0004.75,0012.15,0003.99
2022-08-06 13:17:00,,0830.1,5.01,0.00,29.6,27.8,00.0,38.4,31.4,34.5,0000.0,0004.79,0012.32,0004.00
2022-08-06 13:18:00,,0830.3,4.99,0.00,29.6,27.9,00.0,38.4,31.4,34.5,0000.0,0004.82,0011.93,0004.01
2022-08-06 13:19:00,,0830.2,5.00,0.00,29.6,28.0,00.0,38.4,31.4,34.8,0000.0,0004.77,0011.74,0004.01
2022-08-06 13:20:00,,0830.1,5.01,0.00,29.6,28.1,00.0,38.4,31.5,35.1,0000.0,0004.76,0011.39,0004.01
2022-08-06 13:21:00,,0830.2,5.00,0.00,29.8,28.2,00.0,38.4,31.6,34.5,0000.0,0004.72,0010.25,0004.00
2022-08-06 13:22:00,,0830.1,5.00,0.00,29.9,28.3,00.0,38.4,31.7,34.2,0000.0,0004.70,0010.01,0003.99
2022-08-06 13:23:00,,0830.1,5.00,0.00,30.0,28.4,00.0,38.4,31.7,34.2,0000.0,0004.68,0009.88,0003.98
2022-08-06 13:24:00,,0830.2,5.01,0.00,30.0,28.5,00.0,38.5,31.7,34.1,0000.0,0004.62,0009.48,0003.96
2022-08-06 13:25:00,,0830.2,5.00,0.00,30.0,28.6,00.0,38.5,31.7,34.1,0000.0,0004.63,0008.75,0003.96
2022-08-06 13:26:00,,0830.1,5.00,0.00,30.1,28.7,00.0,38.6,31.7,34.0,0000.0,0004.63,0008.31,0003.95
2022-08-06 13:27:00,,0830.2,5.00,0.00,30.1,28.8,00.0,38.6,31.8,34.1,0000.0,0004.60,0008.12,0003.93
2022-08-06 13:28:00,,0830.1,5.00,0.00,30.1,28.8,00.0,38.6,31.8,33.7,0000.0,0004.63,0008.40,0003.92
2022-08-06 13:29:00,,0830.1,5.00,0.00,30.1,28.9,00.0,38.7,31.9,33.7,0000.0,0004.63,0008.45,0003.92
2022-08-06 13:30:00,,0830.2,4.99,0.00,30.2,28.9,00.0,38.7,31.9,33.8,0000.0,0004.63,0008.88,0003.92
2022-08-06 13:31:00,,0830.1,4.99,0.00,30.2,28.5,00.0,38.7,31.8,33.7,0000.0,0004.63,0008.88,0003.92
2022-08-06 13:32:00,,0830.1,5.01,0.00,30.1,27.8,00.0,38.6,31.6,33.9,0000.0,0004.64,0008.88,0003.93
2022-08-06 13:33:00,,0830.1,5.00,0.00,30.0,27.5,00.0,38.6,31.6,34.0,0000.0,0004.66,0008.84,0003.94
2022-08-06 13:34:00,,0830.1,4.99,0.00,29.9,27.5,00.0,38.6,31.5,34.0,0000.0,0004.67,0008.90,0003.95
2022-08-06 13:35:00,,0830.1,4.99,0.00,29.9,27.6,00.0,38.6,31.4,34.6,0000.0,0004.72,0009.03,0003.96
2022-08-06 13:36:00,,0830.1,5.01,0.00,29.9,27.7,00.0,38.6,31.5,34.7,0000.0,0004.74,0009.03,0003.97
2022-08-06 13:37:00,,0830.1,5.00,0.00,29.9,27.8,00.0,38.6,31.5,34.3,0000.0,0004.74,0009.03,0003.98
2022-08-06 13:38:00,,0830.1,5.01,0.00,29.9,28.0,00.0,38.6,31.6,35.0,0000.0,0004.81,0009.71,0003.99
2022-08-06 13:39:00,,0830.1,4.99,0.00,30.1,28.1,00.0,38.6,31.7,34.7,0000.0,0004.81,0009.51,0004.00
2022-08-06 13:40:00,,0830.1,5.00,0.00,30.2,28.3,00.0,38.6,31.7,34.8,0000.0,0004.76,0009.32,0003.99
2022-08-06 13:41:00,,0830.1,4.99,0.00,30.3,28.4,00.0,38.6,31.8,34.2,0000.0,0004.78,0009.09,0004.00
2022-08-06 13:42:00,,0830.1,5.00,0.00,30.4,28.5,00.0,38.7,31.8,34.0,0000.0,0004.80,0009.01,0004.00
2022-08-06 13:43:00,,0830.0,5.00,0.00,30.4,28.6,00.0,38.7,31.9,33.7,0000.0,0004.82,0009.06,0004.00
2022-08-06 13:44:00,,0830.0,5.00,0.00,30.4,28.7,00.0,38.7,31.9,33.7,0000.0,0004.79,0009.03,0004.00
2022-08-06 13:45:00,,0830.0,5.00,0.00,30.4,28.8,00.0,38.8,31.9,33.6,0000.0,0004.83,0009.10,0004.01
2022-08-06 13:46:00,,0830.1,5.01,0.00,30.4,28.8,00.0,38.8,31.9,33.7,0000.0,0004.86,0009.20,0004.04
2022-08-06 13:47:00,,0830.1,5.00,0.00,30.5,28.9,00.0,38.9,32.0,34.0,0000.0,0004.89,0009.24,0004.06
2022-08-06 13:48:00,,0830.1,4.99,0.00,30.5,29.0,00.0,38.9,32.0,34.1,0000.0,0004.94,0009.27,0004.08
2022-08-06 13:49:00,,0830.1,5.00,0.00,30.5,28.9,00.0,38.9,32.0,33.8,0000.0,0004.95,0008.78,0004.12
2022-08-06 13:50:00,,0830.1,5.01,0.00,30.5,28.3,00.0,38.9,31.9,34.0,0000.0,0004.98,0008.76,0004.14
2022-08-06 13:51:00,,0830.1,4.99,0.00,30.4,27.8,00.0,38.9,31.8,34.0,0000.0,0005.02,0008.95,0004.19
2022-08-06 13:52:00,,0830.1,5.01,0.00,30.4,27.6,00.0,38.9,31.7,34.2,0000.0,0005.02,0008.82,0004.22
2022-08-06 13:53:00,,0830.1,5.00,0.00,30.2,27.6,00.0,38.9,31.6,34.2,0000.0,0005.06,0008.87,0004.26
2022-08-06 13:54:00,,0830.1,4.99,0.00,30.2,27.7,00.0,38.8,31.6,34.3,0000.0,0005.11,0009.04,0004.31
2022-08-06 13:55:00,,0830.1,5.01,0.00,30.1,27.9,00.0,38.8,31.6,34.5,0000.0,0005.18,0009.26,0004.36
2022-08-06 13:56:00,,0830.1,4.99,0.00,30.1,28.0,00.0,38.8,31.7,34.8,0000.0,0005.20,0009.25,0004.39
2022-08-06 13:57:00,,0830.0,4.99,0.00,30.1,28.2,00.0,38.8,31.7,34.9,0000.0,0005.21,0009.15,0004.42
2022-08-06 13:58:00,,0830.0,5.00,0.00,30.1,28.3,00.0,38.8,31.8,34.9,0000.0,0005.23,0009.39,0004.44
2022-08-06 13:59:00,,0829.9,5.00,0.00,30.1,28.4,00.0,38.8,31.8,35.0,0000.0,0005.23,0009.39,0004.47
